This is the latest recevied weather packets stored in our database for station/object vk4zu-13. If no packets are shown the sender has not sent any weather packets the latest 10 day(s).
| Time | Temp. | Humidity | Pressure | Rain* | Wind** | Luminosity | Snow |
|---|---|---|---|---|---|---|---|
| 1777423675 | 23.89° C | 67% | 1025.2 hPa | 0 mm | - | 171 W/m² | - |
| 1777423606 | 23.89° C | 68% | 1025.2 hPa | 0 mm | - | 211 W/m² | - |
| 1777423546 | 23.89° C | 66% | 1025.2 hPa | 0 mm | - | 188 W/m² | - |
| 1777423487 | 23.89° C | 68% | 1025.2 hPa | 0 mm | - | 188 W/m² | - |
| 1777423426 | 23.89° C | 66% | 1025.1 hPa | 0 mm | - | 188 W/m² | - |
| 1777423364 | 23.89° C | 66% | 1025.2 hPa | 0 mm | - | 185 W/m² | - |
| 1777423301 | 23.89° C | 66% | 1025.2 hPa | 0 mm | - | 179 W/m² | - |
| 1777423247 | 23.89° C | 65% | 1025.2 hPa | 0 mm | - | 169 W/m² | - |
| 1777423178 | 24.44° C | 65% | 1025.3 hPa | 0 mm | - | 141 W/m² | - |
| 1777423108 | 24.44° C | 65% | 1025.2 hPa | 0 mm | - | 135 W/m² | - |
| 1777423038 | 24.44° C | 65% | 1025.2 hPa | 0 mm | - | 141 W/m² | - |
| 1777422969 | 24.44° C | 65% | 1025.2 hPa | 0 mm | - | 232 W/m² | - |
| 1777422903 | 24.44° C | 65% | 1025.2 hPa | 0 mm | - | 232 W/m² | - |
| 1777422842 | 24.44° C | 64% | 1025.3 hPa | 0 mm | - | 232 W/m² | - |
| 1777422782 | 24.44° C | 67% | 1025.2 hPa | 0 mm | - | 315 W/m² | - |
| 1777422723 | 25° C | 64% | 1025.2 hPa | 0 mm | - | 315 W/m² | - |
| 1777422664 | 25° C | 65% | 1025.3 hPa | 0 mm | - | 846 W/m² | - |
| 1777422597 | 25° C | 66% | 1025.3 hPa | 0 mm | - | 846 W/m² | - |
| 1777422524 | 24.44° C | 69% | 1025.2 hPa | 0 mm | - | 803 W/m² | - |
| 1777422455 | 24.44° C | 67% | 1025.3 hPa | 0 mm | - | 796 W/m² | - |
| 1777422385 | 23.89° C | 67% | 1025.2 hPa | 0 mm | - | 171 W/m² | - |
| 1777422325 | 23.89° C | 70% | 1025.2 hPa | 0 mm | - | 171 W/m² | - |
| 1777422261 | 23.89° C | 68% | 1025.2 hPa | 0 mm | - | 171 W/m² | - |
| 1777422195 | 23.89° C | 68% | 1025.2 hPa | 0 mm | - | 128 W/m² | - |
| 1777422128 | 23.89° C | 67% | 1025.2 hPa | 0 mm | - | 121 W/m² | - |
* Rain latest hour (hover to see other rain measurements)
** Current wind speed in m/s (hover to see current wind gust speed)